Tracking 19827 objects as of 22-Aug-2019
HD Live streaming from Space Station
objects crossing your sky now

FENGYUN 1C DEB

Track FENGYUN 1C DEB now!
10-day predictions


NORAD ID: 31626
Int'l Code: 1999-025CAG
Perigee: 777.9 km
Apogee: 816.5 km
Inclination: 101.3 °
Period: 100.7 minutes
Semi major axis: 7168 km
RCS: 0.0152 m2 (small)
Launch date: May 10, 1999
Source: People's Republic of China (PRC)
Launch site: Taiyaun Space Center, China (TSC)

Note: This is SATELLITE DEBRIS
aabbcc
Your satellite tracking list
Your tracking list is empty




NASA's NSSDC Master Catalog

Two Line Element Set (TLE):
1 31626U 99025CAG 19233.85039856  .00000924  00000-0  37923-3 0  9997
2 31626 101.3041 103.8682 0026875 227.2529 132.6382 14.30498619639328
Source of the keplerian elements: AFSPC